DateTimeUTC,F1_A11,F1_S11,BsB_S11,BsG_S11,BsR_S11,BbsB_S11,BbsG_S11,BbsR_S11,BaB_A11,BaG_A11,BaR_A11,Tu_S11,T_S11,Uu_S11,U_S11,P_S11,T1_A11
2021-06-05T23:00:00Z,00000200,20000000,,,,,,,0000.09,-000.55,-000.18,18.8,25.5,09.8,06.5,0675.4,31.1
2021-06-05T23:01:00Z,00000200,20000000,,,,,,,-000.17,0000.20,-000.26,18.8,25.5,09.8,06.5,0675.4,31.1
2021-06-05T23:02:00Z,00000200,20010000,,,,,,,0000.10,0000.34,0000.18,18.8,25.5,09.8,06.5,0675.4,31.1
2021-06-05T23:03:00Z,00000200,60000000,,,,,,,0000.44,0000.26,-000.02,18.8,25.5,09.8,06.5,0675.4,31.1
2021-06-05T23:04:00Z,00000200,40000000,0000.51,0000.34,0000.42,0000.86,0000.03,-000.26,0000.05,0000.38,0000.66,18.9,25.3,09.5,06.5,0676.3,31.1
2021-06-05T23:05:00Z,00000200,00000000,0001.06,0000.26,0000.07,0000.46,0000.12,-000.02,0000.88,0000.39,0000.16,18.9,25.3,09.5,06.5,0676.4,31.1
2021-06-05T23:06:00Z,00000200,00000000,0000.78,0000.26,0000.16,0000.11,0000.10,-000.33,0000.35,0000.36,0000.41,18.9,25.2,09.5,06.5,0676.4,31.1
2021-06-05T23:07:00Z,00000200,00000000,0000.86,0000.52,0000.34,0000.32,0000.26,0000.28,0000.57,0000.45,0000.40,18.9,25.2,09.5,06.5,0676.4,31.1
2021-06-05T23:08:00Z,00000200,00000000,0000.31,0000.54,0000.27,0000.71,0000.17,-000.06,0000.39,0000.44,0000.32,18.9,25.2,09.4,06.4,0676.4,31.1
2021-06-05T23:09:00Z,00000200,00000000,0000.62,0000.50,0000.21,0000.51,0000.20,0000.04,0000.61,0000.47,0000.07,18.9,25.2,09.4,06.4,0676.4,31.1
2021-06-05T23:10:00Z,00000200,00000000,0001.08,0000.30,0000.13,0000.58,0000.26,0000.12,0000.18,0000.64,0000.66,18.9,25.2,09.3,06.4,0676.4,31.0
2021-06-05T23:11:00Z,00000200,00000000,0000.03,0000.50,0000.35,0000.64,0000.24,0000.17,0001.04,0000.42,0000.27,18.9,25.2,09.5,06.4,0676.4,31.1
2021-06-05T23:12:00Z,00000200,00000000,0000.53,0000.39,0000.54,0000.43,0000.15,0000.19,0000.26,0000.19,0000.49,18.9,25.2,09.5,06.5,0676.4,31.1
2021-06-05T23:13:00Z,00000200,00000000,0000.78,0000.44,0000.10,0000.44,0000.17,-000.19,0000.62,0000.54,-000.01,18.9,25.2,09.4,06.4,0676.4,31.1
2021-06-05T23:14:00Z,00000200,00000000,0000.72,0000.67,0000.56,0000.43,0000.22,-000.03,0000.66,0000.47,0000.65,18.9,25.2,09.5,06.5,0676.4,31.1
2021-06-05T23:15:00Z,00000200,00000000,-000.06,0000.30,0000.37,0000.54,0000.03,-000.18,0000.56,0000.81,0000.18,18.9,25.2,09.4,06.4,0676.4,31.1
2021-06-05T23:16:00Z,00000200,00000000,0001.07,0000.49,0000.14,0000.39,0000.19,-000.14,0000.41,0000.12,0000.76,18.9,25.2,09.4,06.5,0676.4,31.1
2021-06-05T23:17:00Z,00000200,00000000,0001.46,0000.44,0000.13,0000.17,0000.21,0000.06,0000.62,0000.50,-000.02,18.9,25.2,09.5,06.5,0676.4,31.1
2021-06-05T23:18:00Z,00000200,00000000,0000.96,0000.82,0000.18,0000.15,0000.10,-000.08,0000.10,0000.58,0000.58,18.9,25.2,09.4,06.4,0676.4,31.1
2021-06-05T23:19:00Z,00000200,00000000,0000.36,0000.78,0000.17,0000.09,0000.07,-000.02,0000.96,0000.53,-000.06,18.9,25.2,09.4,06.4,0676.4,31.1
2021-06-05T23:20:00Z,00000200,00000000,0001.03,0000.74,0000.02,0000.27,0000.06,-000.05,0000.50,0000.42,0000.98,18.9,25.1,09.5,06.5,0676.4,31.1
2021-06-05T23:21:00Z,00000200,00000000,0000.59,0000.47,0000.25,0000.39,0000.27,-000.03,0000.66,0000.50,0000.11,18.9,25.2,09.5,06.5,0676.4,31.1
2021-06-05T23:22:00Z,00000200,00000000,-000.41,0000.48,0000.34,0000.47,0000.16,0000.33,0000.73,0000.69,0000.46,18.9,25.1,09.7,06.6,0676.4,31.0
2021-06-05T23:23:00Z,00000200,00000000,0000.54,0000.48,0000.03,0001.00,0000.30,0000.10,0000.17,0000.30,0000.37,18.9,25.1,09.7,06.6,0676.4,31.0
2021-06-05T23:24:00Z,00000200,00000000,0000.56,0000.54,0000.31,0000.29,0000.13,-000.13,0000.83,0001.13,0000.31,18.9,25.1,09.7,06.6,0676.4,31.0
2021-06-05T23:25:00Z,00000200,00000000,0000.43,0000.32,0000.29,0000.19,0000.13,-000.02,0000.39,0000.08,0000.59,18.9,25.1,09.9,06.7,0676.4,31.1
2021-06-05T23:26:00Z,00000200,00000000,0000.89,0000.54,0000.11,0000.20,0000.13,0000.05,0000.73,0000.39,0000.52,18.9,25.1,09.8,06.7,0676.4,31.0
2021-06-05T23:27:00Z,00000200,00000000,0000.72,0000.27,0000.57,0000.82,0000.18,0000.17,0000.63,0000.57,0000.09,18.9,25.1,09.7,06.6,0676.4,31.0
2021-06-05T23:28:00Z,00000200,00000000,0000.57,0000.47,0000.68,-000.17,0000.06,0000.18,0000.23,0000.48,0000.62,18.9,25.1,09.7,06.6,0676.4,31.0
2021-06-05T23:29:00Z,00000200,00000000,0000.78,0000.51,0000.50,0000.35,0000.38,0000.32,0000.60,0000.28,0000.17,18.9,25.1,09.8,06.7,0676.4,31.1
2021-06-05T23:30:00Z,00000200,00000000,0000.89,0000.28,0000.48,-000.22,0000.22,0000.28,0001.02,0000.70,0000.72,18.9,25.1,09.9,06.7,0676.4,31.0
2021-06-05T23:31:00Z,00000200,00000000,0000.12,0000.35,0000.28,0000.44,0000.17,0000.14,0000.45,0000.91,0000.09,18.9,25.1,10.0,06.9,0676.4,31.0
2021-06-05T23:32:00Z,00000200,00000000,0000.09,0000.43,0000.22,0000.35,0000.24,-000.21,0000.28,0000.04,0000.34,18.9,25.1,10.1,06.9,0676.4,31.0
2021-06-05T23:33:00Z,00000200,00000000,0000.69,0000.48,0000.27,0000.26,-000.06,0000.30,0000.81,0000.76,0000.51,18.8,25.1,10.0,06.8,0676.3,31.0
2021-06-05T23:34:00Z,00000200,00000000,0000.83,0000.31,0000.14,0000.68,0000.25,0000.41,0000.47,0000.85,0000.25,18.9,25.1,10.2,07.0,0676.3,31.0
2021-06-05T23:35:00Z,00000200,00000000,0000.92,0000.35,0000.45,0000.10,0000.04,-000.10,0000.48,0000.04,0000.47,18.8,25.1,10.3,07.0,0676.3,31.1
2021-06-05T23:36:00Z,00000200,00000000,0000.23,0000.38,0000.22,0000.47,0000.16,0000.13,0000.69,0000.38,0000.23,18.8,25.1,10.1,06.9,0676.3,31.0
2021-06-05T23:37:00Z,00000200,00000000,0000.37,0000.51,0000.19,0000.60,0000.17,0000.18,0000.26,0000.52,0000.38,18.8,25.1,10.1,06.9,0676.3,31.0
2021-06-05T23:38:00Z,00000200,00000000,0000.14,0000.36,0000.49,0000.35,0000.21,0000.15,0000.53,0000.16,0000.17,18.8,25.1,10.1,06.9,0676.3,31.0
2021-06-05T23:39:00Z,00000200,00000000,0000.74,0000.47,0000.24,0000.20,0000.12,0000.08,0000.33,0000.97,0000.33,18.8,25.1,10.1,06.9,0676.3,31.0
2021-06-05T23:40:00Z,00000200,00000000,0000.47,0000.56,0000.18,0000.19,0000.20,-000.22,0000.60,-000.07,0000.74,18.8,25.1,10.1,06.9,0676.3,31.0
2021-06-05T23:41:00Z,00000200,00000000,0001.17,0000.44,0000.46,0000.55,0000.24,0000.20,0000.93,0000.83,0000.44,18.8,25.1,10.1,06.9,0676.3,31.0
2021-06-05T23:42:00Z,00000200,00000000,0000.26,-000.05,0000.04,0000.01,0000.21,0000.09,0000.56,0000.70,0000.25,18.8,25.1,10.2,07.0,0676.3,31.0
2021-06-05T23:43:00Z,00000200,00000000,0000.65,0000.37,0000.19,0000.10,0000.20,-000.05,0000.36,0000.54,0000.32,18.8,25.1,10.3,07.1,0676.3,31.0
2021-06-05T23:44:00Z,00000200,00000000,0000.42,0000.41,0000.26,0000.58,-000.10,0000.04,0000.59,0000.21,0000.12,18.8,25.0,10.4,07.1,0676.2,31.0
2021-06-05T23:45:00Z,00000200,00000000,0000.25,0000.21,0000.18,0000.35,0000.24,0000.28,0000.31,0000.56,0000.40,18.8,25.0,10.2,07.0,0676.2,31.0
2021-06-05T23:46:00Z,00000200,00000000,0000.76,0000.27,0000.14,0000.52,0000.26,0000.26,0000.79,0000.47,0000.44,18.8,25.0,10.3,07.0,0676.2,31.0
2021-06-05T23:47:00Z,00000200,00000000,0000.70,0000.27,0000.36,0000.88,0000.11,0000.16,0000.20,0000.63,0000.23,18.8,25.0,10.4,07.1,0676.2,31.0
2021-06-05T23:48:00Z,00000200,00000000,0000.56,0000.15,0000.40,0000.74,0000.14,0000.22,0000.49,0000.39,0000.52,18.8,25.0,10.5,07.2,0676.2,31.0
2021-06-05T23:49:00Z,00000200,00000000,-000.01,0000.19,0000.20,0000.25,0000.28,-000.01,0000.85,-000.11,0000.14,18.8,25.0,10.4,07.1,0676.2,31.0
2021-06-05T23:50:00Z,00000200,00000000,0000.69,0000.50,0000.21,0000.74,0000.25,-000.13,-000.15,0000.75,0000.41,18.8,25.0,10.4,07.1,0676.2,31.0
2021-06-05T23:51:00Z,00000200,00000000,0000.32,0000.59,0000.24,0000.11,0000.27,0000.11,0000.91,0000.11,0000.19,18.8,25.0,10.3,07.0,0676.2,31.0
2021-06-05T23:52:00Z,00000200,00000000,0000.47,0000.60,0000.06,-000.22,0000.21,0000.27,0000.27,0000.80,0000.29,18.8,25.0,10.2,07.0,0676.2,31.0
2021-06-05T23:53:00Z,00000200,00000000,0000.26,0000.46,0000.45,0000.55,0000.11,0000.04,0000.77,0000.63,0000.62,18.8,25.0,10.3,07.0,0676.2,31.0
2021-06-05T23:54:00Z,00000200,00000000,0000.44,0000.04,0000.41,0000.74,0000.39,0000.37,0000.34,0000.37,0000.19,18.8,25.0,10.3,07.1,0676.2,31.0
2021-06-05T23:55:00Z,00000200,00000000,0000.40,0000.43,0000.40,0000.27,0000.23,0000.10,0000.50,0000.52,0000.41,18.8,25.0,10.4,07.1,0676.2,31.0
2021-06-05T23:56:00Z,00000200,00000000,0000.54,0000.40,0000.41,0000.09,-000.02,0000.05,0000.76,0000.41,0000.37,18.8,25.0,10.4,07.1,0676.2,31.0
2021-06-05T23:57:00Z,00000200,40000000,,,,,,,0000.04,-000.00,0000.14,18.8,25.1,10.6,07.2,0676.1,31.0
2021-06-05T23:58:00Z,00000200,60000000,,,,,,,-000.14,-000.10,-000.11,18.5,25.1,10.2,06.8,0675.2,31.0
2021-06-05T23:59:00Z,00000200,20000000,,,,,,,0000.04,0000.12,0000.13,18.5,25.2,10.2,06.8,0675.2,31.0
